Location: Passo di Treia
(43.2833°N, 13.3333°E)
Time: 23:06:12
(UTC+00:00)

YAOGAN 1 - Pass Details

Date: 09 December 2019
Orbit: 619 x 621 km, 98.0° (Epoch: 18 January)

Event Time Altitude Azimuth Distance (km) Brightness Sun altitude
Rises 17:14:43 0° 155° (SSE) 2,884 5.9 -18.2°
Reaches altitude 10° 17:16:55 10° 151° (SSE) 1,983 5.0 -18.6°
Maximum altitude 17:21:08 56° 73° (ENE) 743 2.5 -19.3°
Drops below altitude 10° 17:25:23 10° 356° (N) 1,998 5.1 -20.1°
Sets 17:27:36 0° 352° (N) 2,909 6.0 -20.5°
